Wind_Speed
18 25 23 27 8 11 12 4 3 2 4 5 2 5 5 7 10 11 9 8 4 5 11 15 16 18 19 21 24 22 19 16 18
13 8 13 19 16 16 6 16 4 2 4 6 6 7 9 8 10 11 10 11 9 6 8 12 18 20 20 16 22 22 22 20 20
3 9 1 7 17 23 21 15 12 12 14 8 9 10 10 12 11 12 12 12 10 9 7 10 16 21 21 19 18 24 25 23 23
12 12 13 15 13 12 20 22 24 20 13 14 15 18 12 11 15 15 14 13 11 12 11 9 11 14 18 20 20 21 23 24 24
18 17 17 20 18 13 10 16 29 27 20 16 15 20 24 19 16 17 18 17 14 13 13 13 11 13 14 15 17 20 23 26 27
4 7 13 21 24 26 23 14 15 22 21 36 15 16 25 24 20 19 19 19 18 17 15 15 15 14 13 13 14 17 20 21 23
15 18 20 23 27 25 13 10 13 17 19 16 15 23 14 25 24 23 19 21 20 20 19 18 16 15 15 16 16 17 18 21 23
16 18 21 22 24 23 26 27 29 29 25 20 23 23 23 22 27 28 28 26 23 22 22 21 20 19 18 17 18 18 18 19 22
20 22 22 19 21 28 34 38 39 37 24 20 19 27 33 32 26 31 33 32 30 29 27 24 23 23 21 19 17 17 18 19 20
22 28 31 31 29 29 30 29 33 33 27 23 20 22 30 38 39 37 33 31 34 37 36 32 29 26 25 23 19 17 17 19 21
21 27 33 35 33 35 36 36 30 29 29 25 26 25 24 23 33 42 44 38 40 40 37 37 35 31 29 28 25 22 19 18 23
29 32 33 36 37 37 38 40 43 45 44 39 33 29 30 29 28 27 26 29 39 44 44 41 33 45 34 32 31 31 28 26 25
25 29 33 38 41 44 46 47 46 45 42 38 34 32 35 35 34 32 30 28 30 30 31 33 35 42 41 27 30 33 34 31 30
40 41 41 42 44 47 46 46 42 41 41 41 38 34 32 34 36 37 34 32 33 31 32 31 26 31 23 27 24 37 38 41 38
34 34 35 35 37 37 39 39 36 38 39 38 40 40 38 38 35 37 38 37 34 35 36 35 28 28 29 30 26 22 28 51 49
43 44 41 38 36 37 36 33 33 37 38 37 37 39 38 39 38 36 33 41 40 37 40 39 37 37 36 32 28 31 33 41 46
43 44 44 40 36 37 40 38 40 41 37 36 38 38 36 37 39 35 34 33 42 41 42 41 38 38 39 35 33 33 37 46 56
41 44 43 41 41 43 41 39 37 34 34 35 38 38 36 35 34 33 30 32 40 44 43 41 38 36 34 33 33 35 32 40 43
47 46 45 47 49 45 39 39 38 35 34 35 36 37 35 32 30 31 32 30 33 40 46 41 37 35 31 30 31 33 35 40 43
51 52 53 54 46 38 35 36 37 35 38 41 40 37 34 33 31 30 29 30 31 38 39 42 37 35 30 27 23 28 27 26 33
Wind_Direction
183 204 215 216 158 333 284 270 322 254 251 250 313 321 291 280 286 295 280 261 250 247 235 227 230 231 232 228 223 221 225 220 218
164 166 224 241 190 263 242 255 286 337 320 280 266 291 299 287 277 279 284 264 258 246 239 236 233 234 237 229 229 228 223 223 224
44 175 275 313 249 253 207 228 246 266 262 274 268 269 279 279 272 265 263 263 257 257 255 237 229 233 238 241 230 227 231 233 229
307 315 234 241 287 265 242 237 231 253 221 260 270 272 260 267 287 270 259 258 257 249 248 250 244 232 229 235 239 240 234 231 229
290 297 268 261 293 293 267 268 251 243 240 235 273 266 282 255 256 274 265 257 252 250 250 243 244 241 234 226 232 238 237 233 231
205 223 258 272 292 296 292 273 270 280 290 238 253 255 243 247 255 258 264 261 255 250 248 251 245 241 243 239 236 236 230 234 235
216 223 257 281 291 291 294 290 289 301 284 284 278 303 245 257 246 254 266 256 252 251 246 246 250 251 244 239 237 237 238 237 238
222 235 241 253 264 278 296 301 297 296 304 297 290 293 279 257 256 253 254 253 250 250 247 241 242 247 249 247 245 244 242 243 239
280 282 281 272 271 270 286 293 293 289 290 279 272 248 265 265 265 257 253 255 250 247 242 242 238 240 242 245 249 250 252 252 246
302 307 309 309 307 302 298 293 275 278 281 277 268 267 250 254 258 260 261 258 255 251 244 241 239 237 237 241 243 247 251 254 253
298 301 301 302 305 306 306 303 298 283 286 280 269 263 266 261 254 258 258 259 265 258 256 245 244 239 238 236 237 240 246 252 254
288 290 292 293 291 290 293 297 298 297 297 293 279 262 262 264 261 255 257 258 257 262 266 265 254 245 227 238 238 236 234 231 239
276 276 279 282 281 282 287 292 294 293 292 291 289 280 259 256 261 262 255 253 259 263 265 266 264 270 285 246 237 240 242 242 243
288 286 285 283 282 282 284 288 287 285 285 288 288 287 279 264 252 255 259 256 257 261 268 267 273 262 276 288 272 249 259 252 245
294 295 292 286 286 284 287 289 285 282 281 288 285 283 280 270 261 249 249 250 251 253 257 263 265 256 263 268 271 279 249 250 254
299 299 300 296 297 294 295 285 286 286 284 283 282 281 279 273 270 265 252 249 248 249 251 254 256 259 260 259 264 268 253 250 242
297 295 299 298 292 297 294 291 289 287 287 284 285 286 282 276 270 269 261 250 242 243 248 251 260 261 265 268 264 268 258 257 237
298 303 297 295 295 299 293 290 289 283 286 285 284 281 285 283 273 266 264 248 239 237 244 250 253 260 266 270 276 270 278 279 249
301 301 299 294 297 295 289 287 290 289 286 284 284 282 282 282 273 266 258 251 244 243 239 245 252 258 266 273 277 275 283 267 242
301 300 297 291 289 286 290 291 292 292 289 282 276 273 276 276 272 270 265 254 256 250 243 241 245 254 261 269 269 267 261 261 257
Height
3172 3174 3181 3182 3190 3187 3188 3187 3188 3187 3189 3189 3189 3188 3188 3189 3189 3189 3188 3188 3188 3188 3189 3192 3193 3194 3196 3198 3200 3204 3205 3207 3210
3175 3175 3178 3178 3177 3183 3185 3187 3187 3189 3189 3189 3187 3185 3185 3186 3187 3187 3186 3186 3186 3186 3186 3186 3188 3189 3191 3194 3195 3197 3200 3202 3206
3175 3180 3182 3183 3183 3182 3181 3183 3181 3180 3185 3186 3184 3181 3181 3182 3182 3184 3184 3183 3183 3183 3183 3183 3183 3185 3186 3188 3190 3192 3195 3197 3200
3175 3177 3176 3181 3182 3180 3181 3177 3173 3174 3173 3179 3180 3182 3178 3177 3180 3180 3180 3180 3180 3180 3179 3180 3179 3181 3182 3183 3185 3186 3189 3192 3195
3176 3174 3174 3175 3176 3177 3174 3171 3165 3131 3166 3170 3176 3180 3182 3178 3176 3178 3177 3177 3177 3177 3176 3176 3176 3176 3178 3179 3180 3181 3184 3187 3189
3175 3174 3173 3172 3172 3172 3172 3171 3167 3164 3163 3151 3169 3173 3171 3171 3171 3173 3173 3174 3173 3173 3173 3172 3172 3172 3174 3174 3175 3176 3178 3180 3182
3170 3174 3174 3171 3168 3166 3165 3165 3167 3165 3168 3166 3166 3164 3164 3163 3162 3165 3167 3168 3167 3168 3169 3168 3166 3166 3167 3169 3170 3171 3172 3173 3174
3168 3169 3170 3170 3168 3165 3162 3161 3162 3162 3158 3158 3155 3156 3156 3158 3155 3157 3158 3160 3162 3162 3162 3161 3159 3160 3161 3162 3163 3164 3166 3167 3168
3162 3163 3164 3166 3166 3166 3162 3157 3154 3153 3153 3150 3151 3152 3150 3152 3145 3149 3149 3149 3152 3154 3153 3153 3152 3153 3154 3156 3157 3157 3159 3161 3162
3155 3153 3151 3151 3152 3153 3153 3152 3149 3145 3146 3145 3144 3141 3140 3141 3140 3141 3141 3140 3140 3140 3138 3141 3143 3146 3147 3149 3150 3152 3154 3155 3156
3150 3148 3146 3144 3141 3140 3140 3140 3140 3138 3136 3136 3134 3133 3132 3131 3130 3130 3130 3130 3129 3125 3117 3127 3131 3133 3136 3140 3142 3144 3147 3148 3149
3147 3144 3141 3138 3136 3132 3130 3129 3127 3126 3125 3124 3125 3125 3123 3122 3121 3120 3120 3120 3118 3116 3116 3112 3113 3104 3112 3126 3133 3135 3136 3135 3138
3141 3139 3136 3132 3130 3126 3123 3120 3117 3113 3111 3111 3111 3111 3113 3113 3112 3111 3111 3111 3109 3108 3108 3109 3106 3095 3086 3099 3116 3127 3131 3131 3132
3134 3130 3127 3123 3120 3116 3114 3111 3107 3104 3102 3099 3098 3098 3098 3099 3101 3101 3102 3102 3101 3101 3101 3102 3103 3103 3104 3100 3112 3125 3125 3125 3126
3124 3121 3118 3115 3109 3106 3104 3101 3097 3094 3091 3091 3087 3085 3085 3085 3087 3088 3089 3090 3092 3092 3093 3094 3097 3099 3101 3102 3106 3112 3113 3114 3115
3113 3109 3105 3102 3098 3094 3092 3089 3087 3082 3080 3079 3077 3075 3073 3073 3074 3075 3078 3078 3080 3081 3081 3081 3085 3088 3091 3095 3098 3095 3095 3095 3098
3102 3098 3093 3089 3086 3083 3079 3077 3073 3070 3068 3067 3064 3061 3061 3061 3061 3062 3063 3064 3065 3068 3068 3070 3073 3074 3075 3080 3083 3082 3081 3082 3085
3090 3086 3081 3077 3073 3069 3066 3063 3061 3059 3057 3054 3051 3048 3047 3046 3047 3049 3050 3050 3051 3053 3055 3059 3062 3064 3066 3069 3070 3071 3070 3067 3065
3078 3072 3068 3063 3059 3055 3053 3050 3047 3047 3045 3041 3039 3036 3036 3035 3035 3036 3036 3039 3041 3041 3044 3049 3052 3055 3058 3061 3060 3059 3059 3059 3060
3064 3058 3052 3046 3044 3042 3040 3037 3034 3035 3031 3026 3024 3023 3024 3024 3025 3025 3026 3028 3029 3030 3034 3038 3043 3046 3049 3053 3053 3051 3053 3052 3053